KE7JVX-3 Weather Reports


Display with metric or nautical units.
time (UTC)temp
F
wind
direction
speed
MPH
gust
MPH
rain 1hr
in
rain 24hr
in
rain mn
in
humidity
%
barometer
mb
20260903194907 60 243 4.0 9.0 0.00 0.00 0.00 63 1016.1
20260903193908 60 253 6.0 12.0 0.00 0.00 0.00 63 1016.1
20260903192907 59 255 5.0 13.0 0.00 0.00 0.00 63 1016.2
20260903191908 59 244 8.0 15.0 0.00 0.00 0.00 63 1016.3
20260903190908 59 232 7.0 14.0 0.00 0.00 0.00 64 1016.4
20260903185907 59 247 7.0 12.0 0.00 0.00 0.00 66 1016.4
20260903184907 59 246 9.0 14.0 0.00 0.00 0.00 67 1016.6
20260903183908 59 249 8.0 17.0 0.00 0.00 0.00 66 1016.7
20260903182909 59 264 7.0 13.0 0.00 0.00 0.00 64 1016.8
20260903181907 59 253 8.0 13.0 0.00 0.00 0.00 65 1016.8
20260903180911 59 262 6.0 11.0 0.00 0.00 0.00 65 1016.9
20260903175910 58 254 6.0 10.0 0.00 0.00 0.00 65 1016.9
20260903174907 58 267 4.0 10.0 0.00 0.00 0.00 64 1017.0
20260903173907 58 248 7.0 11.0 0.00 0.00 0.00 65 1017.0
20260903172907 57 256 3.0 9.0 0.00 0.00 0.00 65 1016.9
20260903171907 57 256 5.0 13.0 0.00 0.00 0.00 65 1017.0
20260903170908 58 266 7.0 15.0 0.00 0.00 0.00 66 1017.0
20260903165907 57 269 7.0 12.0 0.00 0.00 0.00 63 1016.9
20260903164907 57 227 4.0 10.0 0.00 0.00 0.00 62 1016.8
20260903163906 57 240 4.0 12.0 0.00 0.00 0.00 63 1016.8
20260903162907 56 244 5.0 10.0 0.00 0.00 0.00 64 1016.7
20260903161907 55 241 2.0 7.0 0.00 0.00 0.00 65 1016.7
20260903160907 55 255 3.0 9.0 0.00 0.00 0.00 68 1016.7
20260903155907 55 242 4.0 10.0 0.00 0.00 0.00 65 1016.7
20260903154907 55 260 5.0 8.0 0.00 0.00 0.00 62 1016.7
20260903153907 55 240 3.0 11.0 0.00 0.00 0.00 63 1016.7
20260903152907 55 236 5.0 11.0 0.00 0.00 0.00 60 1016.7
20260903151907 55 244 6.0 11.0 0.00 0.00 0.00 60 1016.7
20260903150907 55 255 5.0 10.0 0.00 0.00 0.00 54 1016.6
20260903145907 55 242 2.0 9.0 0.00 0.00 0.00 55 1016.6
20260903144908 56 234 2.0 4.0 0.00 0.00 0.00 48 1016.7
20260903143907 56 283 2.0 7.0 0.00 0.00 0.00 55 1016.6
20260903142907 56 302 2.0 5.0 0.00 0.00 0.00 55 1016.6
20260903141906 56 0 0.0 3.0 0.00 0.00 0.00 49 1016.6
20260903140907 56 302 1.0 5.0 0.00 0.00 0.00 52 1016.6
20260903135907 55 302 1.0 5.0 0.00 0.00 0.00 44 1016.4
20260903134907 55 286 5.0 8.0 0.00 0.00 0.00 53 1016.4
20260903133907 55 292 4.0 9.0 0.00 0.00 0.00 52 1016.4
20260903132906 55 292 4.0 7.0 0.00 0.00 0.00 52 1016.3
20260903131907 56 0 0.0 6.0 0.00 0.00 0.00 50 1016.3
20260903130907 56 273 4.0 9.0 0.00 0.00 0.00 62 1016.2
20260903125906 56 286 5.0 9.0 0.00 0.00 0.00 61 1016.0
20260903124911 56 273 4.0 10.0 0.00 0.00 0.00 63 1016.0
20260903123907 56 288 6.0 11.0 0.00 0.00 0.00 64 1016.0
20260903122907 56 304 7.0 11.0 0.00 0.00 0.00 63 1015.9
20260903121907 55 301 3.0 9.0 0.00 0.00 0.00 64 1015.9
20260903120906 55 306 5.0 10.0 0.00 0.00 0.00 67 1015.9
20260903115906 55 310 5.0 9.0 0.00 0.00 0.00 68 1015.9
20260903114907 56 310 4.0 10.0 0.00 0.00 0.00 65 1016.0
20260903113906 56 305 6.0 11.0 0.00 0.00 0.00 62 1015.9
20260903112907 56 307 6.0 11.0 0.00 0.00 0.00 60 1016.0
20260903111906 56 305 7.0 12.0 0.00 0.00 0.00 53 1015.9
20260903110907 55 304 8.0 13.0 0.00 0.00 0.00 52 1015.9
20260903105907 55 305 8.0 12.0 0.00 0.00 0.00 57 1015.8
20260903104906 55 305 9.0 14.0 0.00 0.00 0.00 59 1015.8
20260903103907 54 307 10.0 14.0 0.00 0.00 0.00 68 1015.8
20260903102908 54 303 9.0 15.0 0.00 0.00 0.00 73 1015.8
20260903101907 55 305 10.0 16.0 0.00 0.00 0.00 72 1015.9
20260903100907 55 290 11.0 19.0 0.00 0.00 0.00 72 1016.0
20260903095909 55 298 11.0 17.0 0.00 0.00 0.00 70 1016.0
20260903094906 55 301 12.0 18.0 0.00 0.00 0.00 68 1016.0
20260903093907 55 302 12.0 19.0 0.00 0.00 0.00 68 1016.1
20260903092906 55 299 12.0 18.0 0.00 0.00 0.00 68 1016.1
20260903090908 55 294 11.0 16.0 0.00 0.00 0.00 68 1016.1
20260903085907 56 303 10.0 17.0 0.00 0.00 0.00 68 1016.1
20260903084908 56 303 9.0 16.0 0.00 0.00 0.00 68 1016.2
20260903083908 55 299 10.0 16.0 0.00 0.00 0.00 68 1016.2
20260903082907 56 301 10.0 15.0 0.00 0.00 0.00 66 1016.2
20260903081907 56 294 10.0 16.0 0.00 0.00 0.00 63 1016.3
20260903080907 56 291 9.0 16.0 0.00 0.00 0.00 62 1016.4
20260903075907 57 271 13.0 20.0 0.00 0.00 0.00 60 1016.4
20260903074908 57 281 13.0 18.0 0.00 0.00 0.00 58 1016.5
20260903073907 57 287 13.0 18.0 0.00 0.00 0.00 58 1016.5
20260903072907 57 279 11.0 19.0 0.00 0.00 0.00 58 1016.5
20260903071907 57 290 11.0 19.0 0.00 0.00 0.00 59 1016.6
20260903070908 57 280 11.0 19.0 0.00 0.00 0.00 59 1016.6
20260903065908 57 292 12.0 17.0 0.00 0.00 0.00 60 1016.6
20260903064907 57 283 13.0 19.0 0.00 0.00 0.00 60 1016.6
20260903063907 57 282 14.0 19.0 0.00 0.00 0.00 58 1016.6
20260903062907 58 279 14.0 19.0 0.00 0.00 0.00 57 1016.6
20260903061908 57 283 14.0 19.0 0.00 0.00 0.00 56 1016.7
20260903060907 57 279 14.0 18.0 0.00 0.00 0.00 57 1016.6
20260903055907 58 273 11.0 19.0 0.00 0.00 0.00 56 1016.7
20260903054907 58 255 13.0 22.0 0.00 0.00 0.00 52 1016.7
20260903053907 59 273 13.0 19.0 0.00 0.00 0.00 50 1016.5
20260903052907 59 274 11.0 19.0 0.00 0.00 0.00 50 1016.5
20260903051907 59 266 11.0 18.0 0.00 0.00 0.00 49 1016.6
20260903050907 59 280 12.0 19.0 0.00 0.00 0.00 49 1016.5
20260903045907 59 277 12.0 17.0 0.00 0.00 0.00 49 1016.6
20260903044907 59 280 13.0 17.0 0.00 0.00 0.00 49 1016.7
20260903043907 59 289 12.0 17.0 0.00 0.00 0.00 48 1016.8
20260903042908 59 282 11.0 16.0 0.00 0.00 0.00 48 1016.9
20260903041907 59 278 11.0 15.0 0.00 0.00 0.00 48 1016.9
20260903040907 59 280 9.0 15.0 0.00 0.00 0.00 47 1016.8
20260903035907 59 285 9.0 14.0 0.00 0.00 0.00 47 1016.8
20260903034908 59 280 9.0 14.0 0.00 0.00 0.00 47 1016.7
20260903033908 59 286 8.0 13.0 0.00 0.00 0.00 47 1016.7
20260903032910 59 288 10.0 14.0 0.00 0.00 0.00 47 1016.7
20260903031907 59 292 8.0 13.0 0.00 0.00 0.00 48 1016.5
20260903030907 59 289 6.0 14.0 0.00 0.00 0.00 50 1016.6
20260903025911 59 290 8.0 15.0 0.00 0.00 0.00 50 1016.5
20260903024907 59 294 9.0 14.0 0.00 0.00 0.00 50 1016.4
20260903023907 59 295 9.0 14.0 0.00 0.00 0.00 51 1016.3
20260903022907 59 299 8.0 12.0 0.00 0.00 0.00 51 1016.2
20260903021907 59 302 6.0 13.0 0.00 0.00 0.00 52 1016.3
20260903020907 59 302 8.0 12.0 0.00 0.00 0.00 52 1016.1
20260903015908 59 300 7.0 12.0 0.00 0.00 0.00 51 1016.1
20260903014907 60 300 6.0 12.0 0.00 0.00 0.00 51 1016.1
20260903013907 60 306 9.0 15.0 0.00 0.00 0.00 50 1016.1
20260903012907 61 293 8.0 14.0 0.00 0.00 0.00 49 1016.1
20260903011907 61 292 5.0 16.0 0.00 0.00 0.00 46 1016.1
20260903010907 62 293 6.0 14.0 0.00 0.00 0.00 47 1016.1
20260903005907 62 304 7.0 12.0 0.00 0.00 0.00 46 1016.1
20260903004907 62 301 9.0 13.0 0.00 0.00 0.00 47 1016.1
20260903003918 63 308 8.0 13.0 0.00 0.00 0.00 43 1016.1
20260903002907 63 309 8.0 15.0 0.00 0.00 0.00 41 1016.1
20260903001908 64 285 6.0 15.0 0.00 0.00 0.00 42 1016.1
20260903000907 64 304 9.0 14.0 0.00 0.00 0.00 40 1016.1
20260902235907 64 294 7.0 15.0 0.00 0.00 0.00 40 1016.1
20260902234907 64 293 8.0 17.0 0.00 0.00 0.00 40 1016.2
20260902233910 64 300 9.0 14.0 0.00 0.00 0.00 43 1016.2
20260902232907 63 296 6.0 17.0 0.00 0.00 0.00 45 1016.3
20260902231907 64 287 6.0 19.0 0.00 0.00 0.00 46 1016.5
20260902230907 64 274 10.0 16.0 0.00 0.00 0.00 44 1016.6
20260902225907 64 289 12.0 21.0 0.00 0.00 0.00 42 1016.7
20260902224907 64 285 11.0 20.0 0.00 0.00 0.00 46 1016.6
20260902223907 64 293 13.0 18.0 0.00 0.00 0.00 44 1016.7
20260902222908 64 284 8.0 21.0 0.00 0.00 0.00 49 1016.9
20260902221907 64 270 13.0 21.0 0.00 0.00 0.00 47 1016.8
20260902220907 64 276 11.0 26.0 0.00 0.00 0.00 47 1016.8
20260902215907 64 289 9.0 20.0 0.00 0.00 0.00 49 1016.9
20260902214907 63 307 7.0 25.0 0.00 0.00 0.00 50 1017.0
20260902213907 64 289 9.0 23.0 0.00 0.00 0.00 47 1017.0
20260902212907 64 258 9.0 21.0 0.00 0.00 0.00 50 1017.1
20260902212004 64 286 5.0 20.0 0.00 0.00 0.00 50 1017.1
20260902211907 64 286 5.0 20.0 0.00 0.00 0.00 50 1017.1
20260902210908 64 284 7.0 20.0 0.00 0.00 0.00 52 1017.2
20260902205907 64 264 7.0 16.0 0.00 0.00 0.00 56 1017.3
20260902204907 64 274 6.0 19.0 0.00 0.00 0.00 54 1017.4
20260902203907 64 282 6.0 19.0 0.00 0.00 0.00 51 1017.5
20260902202907 63 293 8.0 18.0 0.00 0.00 0.00 54 1017.5
20260902201909 63 261 8.0 17.0 0.00 0.00 0.00 59 1017.6
20260902200907 62 262 11.0 20.0 0.00 0.00 0.00 57 1017.7
20260902195907 62 276 8.0 16.0 0.00 0.00 0.00 56 1017.9